| time (UTC) | temp F | wind direction | speed knots | gust knots | rain 1hr in | rain 24hr in | rain mn in | humidity % | barometer mb |
| 20260504045417 | 50 | 265 | 0.0 | 0.0 | 0.00 | 0.00 | 0.00 | 91 | 1007.1 |
| 20260504044831 | 51 | 259 | 0.0 | 0.0 | 0.00 | 0.00 | 0.00 | 91 | 1007.1 |
| 20260504044221 | 51 | 263 | 0.0 | 0.0 | 0.00 | 0.00 | 0.00 | 89 | 1007.1 |
| 20260504043642 | 52 | 268 | 0.0 | 0.0 | 0.00 | 0.00 | 0.00 | 86 | 1007.1 |
| 20260504043048 | 52 | 272 | 0.0 | 0.0 | 0.00 | 0.00 | 0.00 | 81 | 1007.4 |
| 20260504042431 | 52 | 313 | 0.9 | 0.9 | 0.00 | 0.00 | 0.00 | 76 | 1007.4 |
| 20260504041228 | 53 | 8 | 1.7 | 1.7 | 0.00 | 0.00 | 0.00 | 72 | 1007.4 |
| 20260504040644 | 54 | 359 | 2.6 | 2.6 | 0.00 | 0.00 | 0.00 | 68 | 1007.4 |
| 20260504040030 | 55 | 353 | 0.9 | 0.9 | 0.00 | 0.00 | 0.00 | 62 | 1007.1 |
| 20260504035428 | 53 | 18 | 2.6 | 3.5 | 0.00 | 0.00 | 0.00 | 62 | 1007.1 |
| 20260504034215 | 53 | 275 | 0.0 | 0.0 | 0.00 | 0.00 | 0.00 | 72 | 1007.4 |
| 20260504033612 | 53 | 271 | 0.0 | 0.0 | 0.00 | 0.00 | 0.00 | 72 | 1007.1 |
| 20260504033036 | 53 | 279 | 0.0 | 0.0 | 0.00 | 0.00 | 0.00 | 71 | 1007.1 |
| 20260504031244 | 53 | 268 | 0.0 | 0.0 | 0.00 | 0.00 | 0.00 | 72 | 1007.1 |
| 20260504030018 | 52 | 279 | 0.0 | 0.0 | 0.00 | 0.00 | 0.00 | 71 | 1007.1 |
| 20260504025414 | 53 | 290 | 0.0 | 0.0 | 0.00 | 0.00 | 0.00 | 71 | 1007.1 |
| 20260504024824 | 53 | 268 | 0.0 | 0.0 | 0.00 | 0.00 | 0.00 | 71 | 1007.4 |
| 20260504024220 | 52 | 259 | 1.7 | 1.7 | 0.00 | 0.00 | 0.00 | 69 | 1007.1 |
| 20260504023633 | 52 | 280 | 0.0 | 0.0 | 0.00 | 0.00 | 0.00 | 70 | 1007.1 |
| 20260504023027 | 52 | 268 | 0.0 | 0.0 | 0.00 | 0.00 | 0.00 | 71 | 1007.1 |
| 20260504022437 | 52 | 273 | 0.0 | 0.0 | 0.00 | 0.00 | 0.00 | 70 | 1007.1 |
| 20260504021834 | 52 | 266 | 0.0 | 0.0 | 0.00 | 0.00 | 0.00 | 71 | 1007.1 |
| 20260504020620 | 52 | 251 | 0.0 | 0.0 | 0.00 | 0.00 | 0.00 | 72 | 1007.1 |
| 20260504020020 | 53 | 279 | 0.0 | 0.0 | 0.00 | 0.00 | 0.00 | 70 | 1006.7 |
| 20260504015443 | 53 | 268 | 0.0 | 0.0 | 0.00 | 0.00 | 0.00 | 70 | 1006.7 |
| 20260504014826 | 53 | 276 | 0.0 | 0.0 | 0.00 | 0.00 | 0.00 | 69 | 1006.7 |
| 20260504014244 | 53 | 275 | 0.0 | 0.0 | 0.00 | 0.00 | 0.00 | 69 | 1006.7 |
| 20260504013650 | 53 | 286 | 0.0 | 0.0 | 0.00 | 0.00 | 0.00 | 67 | 1006.7 |
| 20260504012412 | 53 | 207 | 0.0 | 0.0 | 0.00 | 0.00 | 0.00 | 68 | 1006.7 |
| 20260504011837 | 53 | 327 | 0.0 | 0.9 | 0.00 | 0.00 | 0.00 | 66 | 1007.1 |
| 20260504011214 | 54 | 268 | 0.0 | 0.0 | 0.00 | 0.00 | 0.00 | 66 | 1006.7 |
| 20260504010635 | 54 | 295 | 0.0 | 0.0 | 0.00 | 0.00 | 0.00 | 63 | 1006.7 |
| 20260504010049 | 54 | 271 | 0.0 | 0.0 | 0.00 | 0.00 | 0.00 | 62 | 1007.1 |
| 20260504005438 | 54 | 272 | 0.0 | 0.0 | 0.00 | 0.00 | 0.00 | 62 | 1007.1 |
| 20260504004247 | 54 | 270 | 0.0 | 0.0 | 0.00 | 0.00 | 0.00 | 61 | 1006.7 |
| 20260504003614 | 55 | 263 | 0.0 | 0.0 | 0.00 | 0.00 | 0.00 | 59 | 1006.7 |
| 20260504003040 | 55 | 261 | 0.0 | 0.0 | 0.00 | 0.00 | 0.00 | 57 | 1006.7 |
| 20260504002436 | 56 | 263 | 0.0 | 0.0 | 0.00 | 0.00 | 0.00 | 58 | 1006.7 |
| 20260504001818 | 56 | 217 | 0.0 | 0.0 | 0.00 | 0.00 | 0.00 | 57 | 1006.7 |
| 20260504001219 | 57 | 280 | 0.0 | 0.0 | 0.00 | 0.00 | 0.00 | 57 | 1006.7 |
| 20260504000654 | 57 | 257 | 0.0 | 0.0 | 0.00 | 0.00 | 0.00 | 57 | 1007.1 |
| 20260504000042 | 58 | 258 | 0.0 | 0.0 | 0.00 | 0.00 | 0.00 | 56 | 1006.7 |
| 20260503235412 | 59 | 266 | 0.0 | 0.0 | 0.00 | 0.00 | 0.00 | 55 | 1006.7 |
| 20260503234815 | 60 | 242 | 0.0 | 0.0 | 0.00 | 0.00 | 0.00 | 57 | 1006.4 |
| 20260503234236 | 60 | 271 | 0.0 | 0.0 | 0.00 | 0.00 | 0.00 | 55 | 1006.7 |
| 20260503233627 | 61 | 278 | 0.0 | 0.0 | 0.00 | 0.00 | 0.00 | 52 | 1006.7 |
| 20260503233035 | 60 | 1 | 0.9 | 0.9 | 0.00 | 0.00 | 0.00 | 42 | 1006.7 |
| 20260503232447 | 61 | 221 | 0.0 | 0.0 | 0.00 | 0.00 | 0.00 | 43 | 1006.4 |
| 20260503231818 | 61 | 280 | 0.0 | 0.0 | 0.00 | 0.00 | 0.00 | 47 | 1006.7 |
| 20260503231252 | 62 | 336 | 0.0 | 0.9 | 0.00 | 0.00 | 0.00 | 39 | 1007.1 |
| 20260503230636 | 62 | 268 | 0.9 | 0.9 | 0.00 | 0.00 | 0.00 | 37 | 1007.1 |
| 20260503230041 | 62 | 300 | 2.6 | 2.6 | 0.00 | 0.00 | 0.00 | 38 | 1007.4 |
| 20260503224223 | 63 | 313 | 3.5 | 5.2 | 0.00 | 0.00 | 0.00 | 38 | 1007.4 |
| 20260503223614 | 63 | 246 | 1.7 | 2.6 | 0.00 | 0.00 | 0.00 | 39 | 1007.4 |
| 20260503223014 | 63 | 266 | 2.6 | 3.5 | 0.00 | 0.00 | 0.00 | 37 | 1007.4 |
| 20260503222422 | 63 | 293 | 0.9 | 1.7 | 0.00 | 0.00 | 0.00 | 41 | 1007.4 |
| 20260503221820 | 63 | 290 | 1.7 | 1.7 | 0.00 | 0.00 | 0.00 | 35 | 1007.7 |
| 20260503221224 | 65 | 354 | 3.5 | 3.5 | 0.00 | 0.00 | 0.00 | 34 | 1007.4 |
| 20260503220654 | 65 | 257 | 2.6 | 3.5 | 0.00 | 0.00 | 0.00 | 37 | 1007.4 |
| 20260503220044 | 65 | 273 | 2.6 | 5.2 | 0.00 | 0.00 | 0.00 | 36 | 1007.4 |
| 20260503215439 | 66 | 302 | 2.6 | 2.6 | 0.00 | 0.00 | 0.00 | 36 | 1007.4 |
| 20260503214810 | 65 | 294 | 1.7 | 1.7 | 0.00 | 0.00 | 0.00 | 36 | 1007.4 |
| 20260503214224 | 65 | 4 | 2.6 | 3.5 | 0.00 | 0.00 | 0.00 | 39 | 1007.4 |
| 20260503213647 | 65 | 310 | 0.9 | 1.7 | 0.00 | 0.00 | 0.00 | 34 | 1007.4 |
| 20260503212440 | 63 | 43 | 1.7 | 2.6 | 0.00 | 0.00 | 0.00 | 37 | 1007.7 |
| 20260503211827 | 63 | 12 | 1.7 | 2.6 | 0.00 | 0.00 | 0.00 | 35 | 1007.7 |
| 20260503211227 | 65 | 300 | 1.7 | 2.6 | 0.00 | 0.00 | 0.00 | 35 | 1007.4 |
| 20260503210647 | 65 | 353 | 1.7 | 1.7 | 0.00 | 0.00 | 0.00 | 35 | 1007.7 |
| 20260503210017 | 65 | 285 | 2.6 | 2.6 | 0.00 | 0.00 | 0.00 | 36 | 1007.7 |
| 20260503205430 | 64 | 282 | 3.5 | 5.2 | 0.00 | 0.00 | 0.00 | 36 | 1007.7 |
| 20260503204242 | 65 | 320 | 1.7 | 2.6 | 0.00 | 0.00 | 0.00 | 39 | 1007.7 |
| 20260503203038 | 65 | 303 | 3.5 | 3.5 | 0.00 | 0.00 | 0.00 | 39 | 1008.1 |
| 20260503202422 | 64 | 13 | 1.7 | 2.6 | 0.00 | 0.00 | 0.00 | 36 | 1008.1 |
| 20260503201816 | 67 | 297 | 1.7 | 2.6 | 0.00 | 0.00 | 0.00 | 37 | 1008.1 |
| 20260503201234 | 64 | 271 | 0.9 | 0.9 | 0.00 | 0.00 | 0.00 | 38 | 1008.4 |
| 20260503200625 | 64 | 287 | 1.7 | 2.6 | 0.00 | 0.00 | 0.00 | 38 | 1008.4 |
| 20260503200026 | 64 | 285 | 1.7 | 2.6 | 0.00 | 0.00 | 0.00 | 39 | 1008.8 |
| 20260503195409 | 63 | 293 | 2.6 | 2.6 | 0.00 | 0.00 | 0.00 | 37 | 1008.8 |
| 20260503194821 | 64 | 277 | 3.5 | 3.5 | 0.00 | 0.00 | 0.00 | 40 | 1008.8 |
| 20260503194241 | 63 | 274 | 2.6 | 2.6 | 0.00 | 0.00 | 0.00 | 40 | 1009.1 |
| 20260503193621 | 63 | 37 | 1.7 | 1.7 | 0.00 | 0.00 | 0.00 | 35 | 1009.1 |
| 20260503193043 | 63 | 344 | 2.6 | 2.6 | 0.00 | 0.00 | 0.00 | 37 | 1009.1 |
| 20260503192436 | 64 | 49 | 3.5 | 3.5 | 0.00 | 0.00 | 0.00 | 36 | 1009.1 |
| 20260503191842 | 63 | 340 | 5.2 | 7.0 | 0.00 | 0.00 | 0.00 | 37 | 1009.4 |
| 20260503191249 | 63 | 12 | 1.7 | 2.6 | 0.00 | 0.00 | 0.00 | 35 | 1009.4 |
| 20260503190636 | 63 | 354 | 2.6 | 2.6 | 0.00 | 0.00 | 0.00 | 39 | 1009.4 |
| 20260503190052 | 62 | 343 | 2.6 | 2.6 | 0.00 | 0.00 | 0.00 | 36 | 1009.4 |
| 20260503185423 | 63 | 6 | 2.6 | 3.5 | 0.00 | 0.00 | 0.00 | 37 | 1009.8 |
| 20260503184846 | 61 | 181 | 2.6 | 2.6 | 0.00 | 0.00 | 0.00 | 34 | 1010.1 |
| 20260503184216 | 62 | 343 | 3.5 | 3.5 | 0.00 | 0.00 | 0.00 | 38 | 1010.1 |
| 20260503183031 | 61 | 319 | 2.6 | 3.5 | 0.00 | 0.00 | 0.00 | 40 | 1010.1 |
| 20260503182446 | 62 | 289 | 0.9 | 0.9 | 0.00 | 0.00 | 0.00 | 46 | 1010.1 |
| 20260503181853 | 62 | 282 | 0.9 | 1.7 | 0.00 | 0.00 | 0.00 | 38 | 1010.4 |
| 20260503181236 | 61 | 0 | 2.6 | 3.5 | 0.00 | 0.00 | 0.00 | 38 | 1010.4 |
| 20260503180651 | 61 | 256 | 1.7 | 2.6 | 0.00 | 0.00 | 0.00 | 42 | 1010.8 |
| 20260503180026 | 61 | 338 | 2.6 | 2.6 | 0.00 | 0.00 | 0.00 | 39 | 1010.8 |
| 20260503175417 | 63 | 315 | 3.5 | 5.2 | 0.00 | 0.00 | 0.00 | 39 | 1010.8 |
| 20260503174820 | 63 | 244 | 0.0 | 0.0 | 0.00 | 0.00 | 0.00 | 40 | 1011.1 |
| 20260503174213 | 60 | 327 | 1.7 | 2.6 | 0.00 | 0.00 | 0.00 | 43 | 1010.8 |
| 20260503173628 | 60 | 306 | 0.9 | 1.7 | 0.00 | 0.00 | 0.00 | 43 | 1011.1 |
| 20260503173035 | 60 | 282 | 0.9 | 0.9 | 0.00 | 0.00 | 0.00 | 36 | 1011.1 |
| 20260503172413 | 60 | 226 | 1.7 | 1.7 | 0.00 | 0.00 | 0.00 | 38 | 1011.1 |
| 20260503171814 | 59 | 342 | 1.7 | 2.6 | 0.00 | 0.00 | 0.00 | 46 | 1011.1 |
| 20260503171254 | 60 | 266 | 5.2 | 7.0 | 0.00 | 0.00 | 0.00 | 46 | 1011.5 |
| 20260503150630 | 53 | 256 | 2.6 | 2.6 | 0.00 | 0.00 | 0.00 | 49 | 1012.5 |
| 20260503130620 | 39 | 312 | 0.0 | 0.0 | 0.00 | 0.00 | 0.00 | 99 | 1012.8 |
| 20260503110645 | 30 | 286 | 0.0 | 0.0 | 0.00 | 0.00 | 0.00 | 99 | 1011.8 |
| 20260503081246 | 32 | 273 | 0.0 | 0.0 | 0.00 | 0.00 | 0.00 | 98 | 1010.8 |
| 20260503072411 | 32 | 270 | 0.0 | 0.0 | 0.00 | 0.00 | 0.00 | 98 | 1010.4 |
| 20260503071838 | 32 | 279 | 0.0 | 0.0 | 0.00 | 0.00 | 0.00 | 98 | 1010.4 |
| 20260503071227 | 32 | 273 | 0.0 | 0.0 | 0.00 | 0.00 | 0.00 | 98 | 1010.4 |
| 20260503070623 | 32 | 276 | 0.0 | 0.0 | 0.00 | 0.00 | 0.00 | 97 | 1010.4 |